Regional Weather Roundup
Issued by NWS

Home | Current Version | Previous Version | Graphics & Text | Print | Product List | Glossary On
Versions: 1 2 3 4 5 6 7 8 9 10 11 12 13 14 15 16 17 18 19 20 21 22 23 24 25 26 27 28 29 30 31 32 33 34 35 36 37 38 39 40 41 42 43 44 45 46 47 48 49 50
000
ASUS43 KDTX 230910
RWRMI
MICHIGAN HOURLY REGIONAL WEATHER ROUNDUP
NATIONAL WEATHER SERVICE DETROIT/PONTIAC MI
ISSUED BY NATIONAL WEATHER SERVICE GRAND RAPIDS MI
400 AM EST MON JAN 23 2017

NOTE: "FAIR" INDICATES FEW OR NO CLOUDS BELOW 12,000 FEET WITH NO
SIGNIFICANT WEATHER AND/OR OBSTRUCTION TO VISIBILITY.

MIZ047>049-052>055-059>063-066>070-074>076-081>083-231000-
SOUTHEAST LOWER MICHIGAN

CITY           SKY/WX    TMP DP  RH WIND       PRES   REMARKS
ADRIAN         CLOUDY    44  44 100 E13       29.61R FOG
ALMA           CLOUDY    38  38  99 N5        29.67R FOG     WCI  34
ANN ARBOR      FOG       44  44 100 NE7       29.61S VSB 3/4
BAD AXE        FOG       38  38 100 E5        29.68S VSB 1/2 WCI  34
DETROIT CITY   FOG       41  41 100 NE8       29.64R VSB 1
DETROIT        FOG       42  42 100 NE7       29.63R VSB 1
FLINT          CLOUDY    40  39  97 NE6       29.65S FOG
GROSSE ILE     FOG       40  40  99 NE9       29.61S VSB 1/2 WCI  35
HILLSDALE      FOG       41  41 100 N6        29.59S VSB 1/2
HOWELL         FOG       39  38  97 N3        29.63S VSB 1

CITY           SKY/WX    TMP DP  RH WIND       PRES   REMARKS
JACKSON        CLOUDY    41  40  96 NE6       29.62S FOG
LANSING        FOG       40  37  89 NE7       29.65S VSB 1
MASON          FOG       39  39 100 CALM      29.63S VSB 1
MONROE         CLOUDY    42  42 100 NE6       29.60S FOG
MT. CLEMENS    FOG       40  40 100 N5        29.62S VSB 3/4
PONTIAC        FOG       40  39  97 E7        29.62R VSB 1/4
PORT HOPE        N/A     36  36 100 NE7       29.68R WCI  30
PORT HURON     CLOUDY    39  39 100 NE6       29.65S FOG     WCI  35
TRI CITIES     FOG       37  37 100 NE8       29.67S VSB 1/4 WCI  31
YPSILANTI      CLOUDY    44  43  96 NE12      29.63R FOG
$$
MIZ043>046-050>051-056>058-064>065-071>073-077>080-231000-
SOUTHWEST LOWER MICHIGAN

CITY           SKY/WX    TMP DP  RH WIND       PRES   REMARKS
BATTLE CREEK   CLOUDY    41  41 100 N8        29.64R FOG
BENTON HARBOR  FOG       40  38  93 VRB6      29.67R VSB 1
BIG RAPIDS     CLOUDY    37  37  97 NW3       29.67R FOG
COLDWATER      CLOUDY    41  41 100 N6        29.61S FOG
HOLLAND        CLOUDY    41  39  93 VRB5      29.67S
GRAND RAPIDS   FOG       40  39  97 N8        29.66R VSB 3/4 WCI  34
KALAMAZOO      FOG       42  39  89 N10       29.64R VSB 1
MARSHALL       CLOUDY    40  40  99 N3        29.62S FOG
MOUNT PLEASANT CLOUDY    38  37  99 NW3       29.66S FOG
MUSKEGON       CLOUDY    39  37  92 N6        29.69R WCI  35
STURGIS        CLOUDY    41  41 100 N8        29.61R FOG
$$
MIZ016>042-231000-
NORTHERN LOWER MICHIGAN

CITY           SKY/WX    TMP DP  RH WIND       PRES   REMARKS
ALPENA         FOG       37  36  96 E5        29.72S VSB 1/2 WCI  33
BEAVER ISLAND  FOG       34  34 100 CALM      29.72S VSB 3/4
BELLAIRE       FOG       34  34  99 CALM      29.71S VSB 1/2
CADILLAC       CLOUDY    37  36  97 CALM      29.67S FOG
CHARLEVOIX     FOG       36  36 100 CALM      29.73F VSB 1/2
GAYLORD        FOG       38  34  85 N5        29.68F VSB 3/4 WCI  34
HOUGHTON LAKE  FOG       37  37 100 N5        29.68S VSB 3/4 WCI  33
MANISTEE       FOG       37  36  96 CALM      29.70S VSB 1/4
OSCODA         FOG       37  37  98 NE3       29.70S VSB 1/2
PELLSTON       FOG       34  33  96 CALM      29.72S VSB 1/2
TRAVERSE CITY  FOG       37  37 100 CALM      29.70S VSB 1/4
LUDINGTON      FOG       37  37 100 N5        29.69F VSB 1/4 WCI  33
$$
MIZ007>008-015-231000-
EASTERN UPPER MICHIGAN

CITY           SKY/WX    TMP DP  RH WIND       PRES   REMARKS
KINROSS        MIX PCPN  35  34  96 E8        29.74R FOG     WCI  29
MACKINAC ISLAN FOG       35  35 100 E9        29.72S VSB 1/4 WCI  28
NEWBERRY       FOG       34  33  96 E3        29.73R VSB 1/4
S. S. MARIE    FOG       37  36  96 E5        29.74S VSB 3/4 WCI  33
$$
MIZ004>006-011>014-085-231000-
CENTRAL UPPER MICHIGAN

CITY           SKY/WX    TMP DP  RH WIND       PRES   REMARKS
MANISTIQUE     FOG       34  33  97 CALM      29.72S VSB 1/4
ESCANABA       FOG       36  36 100 CALM      29.72F VSB 3/4
SAWYER-GWINN   FOG       33  33  99 CALM      29.71F VSB 1
$$
MIZ001>003-009>011-084-231000-
WESTERN UPPER MICHIGAN

CITY           SKY/WX    TMP DP  RH WIND       PRES   REMARKS
IRON MOUNTAIN  CLOUDY    34  31  88 NW5       29.71S WCI  30
HOUGHTON       FOG       34  32  92 W7        29.71R VSB 3/4 WCI  28
COPPER HARBOR    N/A     36  35  96 CALM      29.71S
IRONWOOD       LGT RAIN  33  33 100 CALM      29.75R
$$

ABBREVIATIONS USED IN REMARKS
   TC - TEMPERATURE IN CELSIUS
  WCI - WIND CHILL INDEX
   HX - HEAT INDEX
  VSB - VISIBILITY





USA.gov is the U.S. government's official web portal to all federal, state and local government web resources and services.